Location: Neuvy Saint Sepulchre
(46.5953°N, 1.8122°E)
Time: 11:15:15
(UTC+02:00)

ISS - Pass Details

Date: 11 May 2021
Orbit: 417 x 422 km, 51.6° (Epoch: 15 May)

Event Time Altitude Azimuth Distance (km) Brightness Sun altitude
Exits shadow 02:04:21 19° 55° (NE) 1,062 -1.3 -25.4°
Drops below altitude 10° 02:05:29 10° 60° (ENE) 1,505 -0.6 -25.4°
Sets 02:07:37 0° 65° (ENE) 2,372 0.5 -25.4°
